Погода в Клуж-Напоке

Румыния     46°46′13″N   23°37′27″E
темп.,
°C
ветер,
м/с
пор.,
м/с
влажн.,
%
обл.,
%
осадки,
мм/ч
давл.,
гПа
погр.,
м
25 февраля, чт
чт2523:00+6зюз11800 0.0 103622
02:00+5ююв11820 0.0 103622
05:00+4юв118315 0.0 103622
08:00+4ююв11837 0.0 103622
11:00+10в22660 0.0 1034219
14:00+13всв21590 0.0 1033352
17:00+11всв11680 0.0 103228
20:00+8ю11800 0.0 103222
26 февраля, пт
пт2623:00+7ю11760 0.0 103322
02:00+6ю11740 0.0 103222
05:00+5ююв11740 0.0 103022
08:00+5ююв11720 0.0 103022
11:00+11всв11581 0.0 1028186
14:00+14св11501 0.0 1027380
17:00+12ссв11590 0.0 102532
20:00+8зсз11720 0.0 102522
27 февраля, сб
сб2723:00+7з11800 0.0 102522
02:00+5зюз11780 0.0 102422
05:00+5зсз248226 0.0 1023121
08:00+4сз599563 0.6 1024567
11:00+6зсз7106772 0.4 1024890
14:00+6сз9116335 0.4 10251033
17:00+4сз8127145 0.0 10251174
20:00+2сз7128160 0.1 1028737
28 февраля, вс
вс2823:000зсз5108350 0.0 1029559
02:00−1зсз4108325 0.0 1030413
05:00−1зсз38820 0.0 1030351
08:000зсз49851 0.0 1031554
11:00+3сз56632 0.0 1030773
14:00+5сз67572 0.0 1030910
17:00+3сз586598 0.0 1030819
20:000зсз358191 0.0 1032150
1 марта, пн
пн123:00−1з33780 0.0 103370
02:00−1з23700 0.0 103349
05:00−1зсз22660 0.0 103324
08:000зсз11600 0.0 103332
11:00+4ссз344927 0.0 1033676
14:00+3с225963 0.0 1033882
17:00+2с117591 0.1 1033489
20:00−1ююз008847 0.1 103521